"read_dt","SO2 (ppb)","flags","PMT voltage (V)","lamp voltage (V)","lamp intensity (Hz)","internal temp (C)","react chamber temp (C)","sample flow (l/min)","pres (mmHg)","SO2 bkg (ppb)","SO2 coefficient"
2016-05-27 00:00:00,2058E-3,5C000400,-0724,0832,12285,025.2,045.3,0.260,759.9,01.16,0.508
2016-05-27 00:01:00,2042E-3,5C000400,-0724,0832,12292,025.2,045.3,0.260,759.9,01.16,0.508
2016-05-27 00:02:00,1886E-3,5C000400,-0724,0832,12241,025.2,045.4,0.260,759.8,01.16,0.508
2016-05-27 00:03:00,2033E-3,5C000400,-0724,0831,12153,025.2,045.3,0.260,759.8,01.16,0.508
2016-05-27 00:04:00,1873E-3,5C000400,-0724,0832,12289,025.2,045.4,0.260,759.9,01.16,0.508
2016-05-27 00:05:00,2187E-3,5C000400,-0724,0832,12140,025.2,045.3,0.260,759.9,01.16,0.508
2016-05-27 00:06:00,1910E-3,5C000400,-0724,0832,12181,025.2,045.3,0.260,759.9,01.16,0.508
2016-05-27 00:07:00,2078E-3,5C000400,-0724,0832,12275,025.2,045.3,0.260,759.9,01.16,0.508
2016-05-27 00:08:00,1838E-3,5C000400,-0724,0833,12176,025.2,045.3,0.260,759.9,01.16,0.508
2016-05-27 00:09:00,2015E-3,5C000400,-0724,0832,12195,025.2,045.4,0.260,759.9,01.16,0.508
2016-05-27 00:10:00,2039E-3,5C000400,-0724,0832,12251,025.2,045.3,0.260,759.9,01.16,0.508
2016-05-27 00:11:00,2000E-3,5C000400,-0724,0832,12187,025.2,045.4,0.259,759.9,01.16,0.508
2016-05-27 00:12:00,2101E-3,5C000400,-0724,0832,12176,025.2,045.4,0.260,759.8,01.16,0.508
2016-05-27 00:13:00,2076E-3,5C000400,-0724,0831,12162,025.2,045.3,0.259,759.9,01.16,0.508
2016-05-27 00:14:00,1980E-3,5C000400,-0724,0832,12277,025.3,045.3,0.260,759.8,01.16,0.508
2016-05-27 00:15:00,2063E-3,5C000400,-0724,0832,12039,025.2,045.4,0.259,759.8,01.16,0.508
2016-05-27 00:16:00,2059E-3,5C000400,-0724,0832,12128,025.2,045.3,0.260,759.9,01.16,0.508
2016-05-27 00:17:00,1931E-3,5C000400,-0724,0833,12244,025.2,045.3,0.259,759.9,01.16,0.508
2016-05-27 00:18:00,1975E-3,5C000400,-0724,0832,12293,025.3,045.4,0.260,759.9,01.16,0.508
2016-05-27 00:19:00,1912E-3,5C000400,-0724,0833,12019,025.3,045.3,0.259,759.9,01.16,0.508
2016-05-27 00:20:00,1993E-3,5C000400,-0724,0831,12033,025.3,045.4,0.260,759.9,01.16,0.508
2016-05-27 00:21:00,1910E-3,5C000400,-0724,0832,12288,025.3,045.4,0.259,759.9,01.16,0.508
2016-05-27 00:22:00,2035E-3,5C000400,-0724,0833,12104,025.3,045.3,0.260,759.9,01.16,0.508
2016-05-27 00:23:00,2067E-3,5C000400,-0724,0832,12289,025.3,045.3,0.259,759.9,01.16,0.508
2016-05-27 00:24:00,1967E-3,5C000400,-0724,0832,11908,025.3,045.3,0.260,759.9,01.16,0.508
2016-05-27 00:25:00,2036E-3,5C000400,-0724,0832,12292,025.3,045.3,0.259,759.8,01.16,0.508
2016-05-27 00:26:00,2030E-3,5C000400,-0724,0832,12094,025.3,045.4,0.260,759.8,01.16,0.508
2016-05-27 00:27:00,2062E-3,5C000400,-0724,0832,12241,025.3,045.4,0.260,759.8,01.16,0.508
2016-05-27 00:28:00,2075E-3,5C000400,-0724,0832,12065,025.3,045.4,0.260,759.8,01.16,0.508
2016-05-27 00:29:00,2008E-3,5C000400,-0724,0832,12124,025.3,045.4,0.260,759.8,01.16,0.508
2016-05-27 00:30:00,1985E-3,5C000400,-0724,0832,12084,025.3,045.3,0.260,759.8,01.16,0.508
2016-05-27 00:31:00,1962E-3,5C000400,-0724,0832,12261,025.3,045.3,0.260,759.9,01.16,0.508
2016-05-27 00:32:00,1923E-3,5C000400,-0724,0833,12081,025.3,045.3,0.260,759.9,01.16,0.508
2016-05-27 00:33:00,2100E-3,5C000400,-0724,0832,12180,025.3,045.4,0.260,759.8,01.16,0.508
2016-05-27 00:34:00,2033E-3,5C000400,-0724,0832,12224,025.3,045.4,0.260,759.8,01.16,0.508
2016-05-27 00:35:00,2064E-3,5C000400,-0724,0832,12289,025.3,045.4,0.260,759.8,01.16,0.508
2016-05-27 00:36:00,2052E-3,5C000400,-0724,0831,12095,025.3,045.4,0.260,759.8,01.16,0.508
2016-05-27 00:37:00,2031E-3,5C000400,-0724,0832,12119,025.3,045.3,0.260,759.8,01.16,0.508
2016-05-27 00:38:00,2037E-3,5C000400,-0724,0831,12064,025.3,045.3,0.259,759.8,01.16,0.508
2016-05-27 00:39:00,1955E-3,5C000400,-0724,0832,12194,025.3,045.4,0.260,759.9,01.16,0.508
2016-05-27 00:40:00,2049E-3,5C000400,-0724,0831,12208,025.3,045.4,0.259,759.9,01.16,0.508
2016-05-27 00:41:00,1968E-3,5C000400,-0724,0832,12039,025.3,045.3,0.260,759.9,01.16,0.508
2016-05-27 00:42:00,1953E-3,5C000400,-0724,0832,12177,025.3,045.3,0.259,759.8,01.16,0.508
2016-05-27 00:43:00,2074E-3,5C000400,-0724,0831,12134,025.3,045.3,0.260,759.9,01.16,0.508
2016-05-27 00:44:00,1970E-3,5C000400,-0724,0832,12152,025.4,045.4,0.259,759.9,01.16,0.508
2016-05-27 00:45:00,1910E-3,5C000400,-0724,0832,12250,025.3,045.3,0.260,759.9,01.16,0.508
2016-05-27 00:46:00,2066E-3,5C000400,-0724,0832,12116,025.3,045.4,0.259,759.9,01.16,0.508
2016-05-27 00:47:00,1841E-3,5C000400,-0724,0832,12191,025.3,045.3,0.260,759.9,01.16,0.508
2016-05-27 00:48:00,1990E-3,5C000400,-0724,0832,12139,025.3,045.3,0.259,759.9,01.16,0.508
2016-05-27 00:49:00,1988E-3,5C000400,-0724,0832,12240,025.3,045.3,0.260,759.9,01.16,0.508
2016-05-27 00:50:00,1978E-3,5C000400,-0724,0832,12083,025.4,045.3,0.259,759.9,01.16,0.508
2016-05-27 00:51:00,1991E-3,5C000400,-0724,0832,12253,025.3,045.4,0.260,759.9,01.16,0.508
2016-05-27 00:52:00,1943E-3,5C000400,-0724,0832,12171,025.4,045.3,0.260,759.9,01.16,0.508
2016-05-27 00:53:00,2182E-3,5C000400,-0724,0832,12173,025.4,045.3,0.259,759.9,01.16,0.508
2016-05-27 00:54:00,2040E-3,5C000400,-0724,0832,12141,025.4,045.3,0.260,759.9,01.16,0.508
2016-05-27 00:55:00,2053E-3,5C000400,-0724,0833,12081,025.4,045.3,0.259,759.9,01.16,0.508
2016-05-27 00:56:00,2062E-3,5C000400,-0724,0832,12218,025.3,045.3,0.260,759.9,01.16,0.508
2016-05-27 00:57:00,2113E-3,5C000400,-0724,0832,12164,025.4,045.3,0.259,759.8,01.16,0.508
2016-05-27 00:58:00,1982E-3,5C000400,-0724,0832,11979,025.4,045.4,0.260,759.9,01.16,0.508
2016-05-27 00:59:00,2039E-3,5C000400,-0724,0832,12115,025.4,045.4,0.259,759.9,01.16,0.508
2016-05-27 01:00:00,1952E-3,5C000400,-0724,0832,12176,025.4,045.3,0.260,759.9,01.16,0.508
2016-05-27 01:01:00,2008E-3,5C000400,-0724,0831,12193,025.4,045.4,0.259,759.9,01.16,0.508
2016-05-27 01:02:00,1917E-3,5C000400,-0724,0831,12211,025.4,045.4,0.260,759.8,01.16,0.508
2016-05-27 01:03:00,2130E-3,5C000400,-0724,0832,12051,025.4,045.4,0.259,759.8,01.16,0.508
2016-05-27 01:04:00,1978E-3,5C000400,-0724,0832,12100,025.4,045.4,0.259,759.9,01.16,0.508
2016-05-27 01:05:00,2029E-3,5C000400,-0724,0832,12160,025.4,045.4,0.259,759.9,01.16,0.508
2016-05-27 01:06:00,1971E-3,5C000400,-0724,0832,12191,025.4,045.4,0.260,759.9,01.16,0.508
2016-05-27 01:07:00,1992E-3,5C000400,-0724,0832,12127,025.4,045.4,0.259,759.8,01.16,0.508
2016-05-27 01:08:00,1951E-3,5C000400,-0724,0833,12271,025.4,045.3,0.260,759.9,01.16,0.508
2016-05-27 01:09:00,2140E-3,5C000400,-0724,0831,12364,025.4,045.3,0.259,759.9,01.16,0.508
2016-05-27 01:10:00,2032E-3,5C000400,-0724,0832,12178,025.4,045.3,0.260,759.9,01.16,0.508
2016-05-27 01:11:00,1902E-3,5C000400,-0724,0832,12244,025.4,045.4,0.259,759.9,01.16,0.508
2016-05-27 01:12:00,1951E-3,5C000400,-0724,0832,12030,025.4,045.3,0.260,759.9,01.16,0.508
2016-05-27 01:13:00,2046E-3,5C000400,-0724,0832,12123,025.4,045.4,0.259,759.9,01.16,0.508
2016-05-27 01:14:00,1999E-3,5C000400,-0724,0832,12130,025.4,045.4,0.260,759.9,01.16,0.508
2016-05-27 01:15:00,1878E-3,5C000400,-0724,0831,12309,025.5,045.3,0.259,759.9,01.16,0.508
2016-05-27 01:16:00,1956E-3,5C000400,-0724,0832,12187,025.4,045.4,0.260,759.9,01.16,0.508
2016-05-27 01:17:00,2169E-3,5C000400,-0724,0832,12190,025.4,045.4,0.259,759.9,01.16,0.508
2016-05-27 01:18:00,2029E-3,5C000400,-0724,0832,12188,025.4,045.4,0.260,759.9,01.16,0.508
2016-05-27 01:19:00,1935E-3,5C000400,-0724,0832,12142,025.5,045.3,0.259,759.9,01.16,0.508
2016-05-27 01:20:00,2005E-3,5C000400,-0724,0833,12062,025.5,045.4,0.260,759.9,01.16,0.508
2016-05-27 01:21:00,2120E-3,5C000400,-0724,0832,12140,025.4,045.4,0.259,759.9,01.16,0.508
2016-05-27 01:22:00,1813E-3,5C000400,-0724,0832,12183,025.5,045.4,0.260,759.9,01.16,0.508
2016-05-27 01:23:00,2018E-3,5C000400,-0724,0832,12109,025.5,045.4,0.259,759.9,01.16,0.508
2016-05-27 01:24:00,1949E-3,5C000400,-0724,0832,12201,025.5,045.3,0.260,759.9,01.16,0.508
2016-05-27 01:25:00,1926E-3,5C000400,-0724,0832,12137,025.5,045.4,0.259,759.9,01.16,0.508
2016-05-27 01:26:00,2078E-3,5C000400,-0724,0832,12242,025.5,045.4,0.259,759.9,01.16,0.508
2016-05-27 01:27:00,2041E-3,5C000400,-0724,0832,12037,025.5,045.3,0.259,759.9,01.16,0.508
2016-05-27 01:28:00,2047E-3,5C000400,-0724,0833,12256,025.5,045.3,0.259,759.9,01.16,0.508
2016-05-27 01:29:00,1992E-3,5C000400,-0724,0833,12149,025.5,045.4,0.259,759.9,01.16,0.508
2016-05-27 01:30:00,1947E-3,5C000400,-0724,0832,12272,025.5,045.4,0.259,759.9,01.16,0.508
2016-05-27 01:31:00,1971E-3,5C000400,-0724,0832,12165,025.5,045.4,0.259,759.9,01.16,0.508
2016-05-27 01:32:00,1916E-3,5C000400,-0724,0832,12092,025.5,045.4,0.259,759.9,01.16,0.508
2016-05-27 01:33:00,1921E-3,5C000400,-0724,0832,12092,025.5,045.3,0.259,760.0,01.16,0.508
2016-05-27 01:34:00,2014E-3,5C000400,-0724,0832,12129,025.5,045.3,0.260,759.9,01.16,0.508
2016-05-27 01:35:00,2059E-3,5C000400,-0724,0833,12216,025.5,045.4,0.259,759.9,01.16,0.508
2016-05-27 01:36:00,2035E-3,5C000400,-0724,0832,12082,025.5,045.4,0.260,759.9,01.16,0.508
2016-05-27 01:37:00,1986E-3,5C000400,-0724,0832,12147,025.6,045.4,0.259,759.9,01.16,0.508
2016-05-27 01:38:00,1946E-3,5C000400,-0724,0832,12204,025.6,045.3,0.259,760.0,01.16,0.508
2016-05-27 01:39:00,1910E-3,5C000400,-0724,0832,12297,025.6,045.3,0.259,760.0,01.16,0.508
2016-05-27 01:40:00,1979E-3,5C000400,-0724,0832,12077,025.6,045.3,0.259,760.0,01.16,0.508
2016-05-27 01:41:00,1961E-3,5C000400,-0724,0832,12271,025.6,045.4,0.259,760.0,01.16,0.508
2016-05-27 01:42:00,2084E-3,5C000400,-0724,0832,12122,025.6,045.4,0.259,759.9,01.16,0.508
2016-05-27 01:43:00,2024E-3,5C000400,-0724,0832,12182,025.6,045.3,0.259,760.0,01.16,0.508
2016-05-27 01:44:00,1974E-3,5C000400,-0724,0832,12154,025.6,045.3,0.259,759.9,01.16,0.508
2016-05-27 01:45:00,1983E-3,5C000400,-0724,0832,12263,025.6,045.4,0.259,760.0,01.16,0.508
2016-05-27 01:46:00,1946E-3,5C000400,-0724,0832,12336,025.6,045.4,0.259,760.0,01.16,0.508
2016-05-27 01:47:00,2107E-3,5C000400,-0724,0833,12023,025.6,045.4,0.259,759.9,01.16,0.508
2016-05-27 01:48:00,2013E-3,5C000400,-0724,0832,12169,025.6,045.4,0.259,759.9,01.16,0.508
2016-05-27 01:49:00,1973E-3,5C000400,-0724,0832,12197,025.6,045.4,0.259,759.9,01.16,0.508
2016-05-27 01:50:00,2094E-3,5C000400,-0724,0832,12283,025.6,045.4,0.259,759.9,01.16,0.508
2016-05-27 01:51:00,2033E-3,5C000400,-0724,0833,12246,025.6,045.4,0.259,759.9,01.16,0.508
2016-05-27 01:52:00,1938E-3,5C000400,-0724,0833,12260,025.6,045.4,0.259,759.9,01.16,0.508
2016-05-27 01:53:00,2046E-3,5C000400,-0724,0832,12189,025.6,045.4,0.259,759.9,01.16,0.508
2016-05-27 01:54:00,2006E-3,5C000400,-0724,0832,12196,025.7,045.4,0.259,759.9,01.16,0.508
2016-05-27 01:55:00,1907E-3,5C000400,-0724,0832,12095,025.6,045.4,0.259,759.9,01.16,0.508
2016-05-27 01:56:00,2079E-3,5C000400,-0724,0832,12118,025.6,045.4,0.259,759.9,01.16,0.508
2016-05-27 01:57:00,2075E-3,5C000400,-0724,0832,12202,025.7,045.4,0.259,759.9,01.16,0.508
2016-05-27 01:58:00,2108E-3,5C000400,-0724,0832,12191,025.7,045.4,0.259,759.9,01.16,0.508
2016-05-27 01:59:00,2005E-3,5C000400,-0724,0832,12174,025.6,045.4,0.259,759.9,01.16,0.508
2016-05-27 02:00:00,1975E-3,5C000400,-0724,0832,12062,025.7,045.3,0.259,760.0,01.16,0.508
2016-05-27 02:01:00,1877E-3,5C000400,-0724,0832,11984,025.7,045.4,0.259,760.0,01.16,0.508
2016-05-27 02:02:00,2023E-3,5C000400,-0724,0832,12222,025.7,045.4,0.259,759.9,01.16,0.508
2016-05-27 02:03:00,2049E-3,5C000400,-0724,0832,12254,025.7,045.4,0.259,760.0,01.16,0.508
2016-05-27 02:04:00,2084E-3,5C000400,-0724,0832,12233,025.7,045.4,0.259,760.0,01.16,0.508
2016-05-27 02:05:00,2010E-3,5C000400,-0724,0832,12016,025.7,045.4,0.259,760.0,01.16,0.508
2016-05-27 02:06:00,2037E-3,5C000400,-0724,0832,11996,025.7,045.4,0.259,759.9,01.16,0.508
2016-05-27 02:07:00,1874E-3,5C000400,-0724,0832,12268,025.7,045.4,0.259,760.0,01.16,0.508
2016-05-27 02:08:00,1945E-3,5C000400,-0724,0833,12091,025.7,045.4,0.259,759.9,01.16,0.508
2016-05-27 02:09:00,2131E-3,5C000400,-0724,0832,12225,025.7,045.4,0.259,759.9,01.16,0.508
2016-05-27 02:10:00,1938E-3,5C000400,-0724,0831,12117,025.8,045.4,0.259,760.0,01.16,0.508
2016-05-27 02:11:00,2181E-3,5C000400,-0724,0832,12081,025.7,045.4,0.259,760.0,01.16,0.508
2016-05-27 02:12:00,1859E-3,5C000400,-0724,0832,12217,025.8,045.4,0.258,759.9,01.16,0.508
2016-05-27 02:13:00,1983E-3,5C000400,-0724,0832,12137,025.8,045.4,0.259,760.0,01.16,0.508
2016-05-27 02:14:00,2073E-3,5C000400,-0724,0832,12232,025.8,045.4,0.259,760.0,01.16,0.508
2016-05-27 02:15:00,2088E-3,5C000400,-0724,0832,12183,025.8,045.4,0.259,760.0,01.16,0.508
2016-05-27 02:16:00,1918E-3,5C000400,-0724,0832,12254,025.8,045.4,0.259,759.9,01.16,0.508
2016-05-27 02:17:00,2035E-3,5C000400,-0724,0833,12184,025.8,045.4,0.259,760.0,01.16,0.508
2016-05-27 02:18:00,2192E-3,5C000400,-0724,0831,12212,025.8,045.4,0.259,759.9,01.16,0.508
2016-05-27 02:19:00,1997E-3,5C000400,-0724,0833,12057,025.8,045.3,0.259,759.9,01.16,0.508
2016-05-27 02:20:00,2027E-3,5C000400,-0724,0832,12180,025.8,045.4,0.259,759.9,01.16,0.508
2016-05-27 02:21:00,2142E-3,5C000400,-0724,0833,12288,025.8,045.4,0.259,759.9,01.16,0.508
2016-05-27 02:22:00,1933E-3,5C000400,-0724,0832,12068,025.9,045.4,0.259,759.9,01.16,0.508
2016-05-27 02:23:00,1796E-3,5C000400,-0724,0831,12239,025.8,045.3,0.258,759.9,01.16,0.508
2016-05-27 02:24:00,2152E-3,5C000400,-0724,0832,12212,025.8,045.4,0.259,759.9,01.16,0.508
2016-05-27 02:25:00,2008E-3,5C000400,-0724,0832,12242,025.9,045.4,0.258,759.9,01.16,0.508
2016-05-27 02:26:00,2060E-3,5C000400,-0724,0832,12013,025.8,045.4,0.259,760.0,01.16,0.508
2016-05-27 02:27:00,1921E-3,5C000400,-0724,0832,12146,025.9,045.4,0.259,759.9,01.16,0.508
2016-05-27 02:28:00,1886E-3,5C000400,-0724,0832,12174,025.9,045.4,0.259,759.9,01.16,0.508
2016-05-27 02:29:00,2023E-3,5C000400,-0724,0833,12170,025.9,045.4,0.259,759.9,01.16,0.508
2016-05-27 02:30:00,2063E-3,5C000400,-0724,0832,12086,025.9,045.4,0.259,759.9,01.16,0.508
2016-05-27 02:31:00,2032E-3,5C000400,-0724,0832,12085,025.9,045.4,0.259,760.0,01.16,0.508
2016-05-27 02:32:00,2028E-3,5C000400,-0724,0833,12194,025.9,045.4,0.259,760.0,01.16,0.508
2016-05-27 02:33:00,2139E-3,5C000400,-0724,0833,12203,025.9,045.4,0.259,759.9,01.16,0.508
2016-05-27 02:34:00,1968E-3,5C000400,-0724,0832,12066,025.9,045.4,0.259,759.9,01.16,0.508
2016-05-27 02:35:00,2059E-3,5C000400,-0724,0831,12171,025.9,045.4,0.259,759.9,01.16,0.508
2016-05-27 02:36:00,1946E-3,5C000400,-0724,0832,12238,025.9,045.4,0.259,759.9,01.16,0.508
2016-05-27 02:37:00,2053E-3,5C000400,-0724,0832,12191,025.9,045.4,0.259,760.0,01.16,0.508
2016-05-27 02:38:00,2023E-3,5C000400,-0724,0833,12184,025.9,045.4,0.258,760.0,01.16,0.508
2016-05-27 02:39:00,1905E-3,5C000400,-0724,0832,12133,025.9,045.4,0.259,760.0,01.16,0.508
2016-05-27 02:40:00,2057E-3,5C000400,-0724,0832,12046,025.9,045.4,0.258,760.0,01.16,0.508
2016-05-27 02:41:00,2103E-3,5C000400,-0724,0833,12223,026.0,045.3,0.259,760.0,01.16,0.508
2016-05-27 02:42:00,1925E-3,5C000400,-0724,0832,12054,025.9,045.4,0.258,760.0,01.16,0.508
2016-05-27 02:43:00,2018E-3,5C000400,-0724,0832,12212,026.0,045.4,0.259,760.0,01.16,0.508
2016-05-27 02:44:00,1908E-3,5C000400,-0724,0832,12178,026.0,045.4,0.259,760.0,01.16,0.508
2016-05-27 02:45:00,1981E-3,5C000400,-0724,0832,12036,026.0,045.4,0.259,760.0,01.16,0.508
2016-05-27 02:46:00,2050E-3,5C000400,-0724,0833,12123,026.0,045.4,0.259,759.9,01.16,0.508
2016-05-27 02:47:00,2032E-3,5C000400,-0724,0833,12133,025.9,045.4,0.258,760.0,01.16,0.508
2016-05-27 02:48:00,1985E-3,5C000400,-0724,0832,12197,026.0,045.4,0.259,760.0,01.16,0.508
2016-05-27 02:49:00,1974E-3,5C000400,-0724,0832,12200,026.0,045.4,0.258,759.9,01.16,0.508
2016-05-27 02:50:00,2055E-3,5C000400,-0724,0832,12247,026.0,045.4,0.259,759.9,01.16,0.508
2016-05-27 02:51:00,1972E-3,5C000400,-0724,0832,12175,026.0,045.4,0.258,759.9,01.16,0.508
2016-05-27 02:52:00,1992E-3,5C000400,-0724,0832,12106,026.0,045.4,0.259,759.9,01.16,0.508
2016-05-27 02:53:00,2126E-3,5C000400,-0724,0833,12146,026.0,045.4,0.258,759.9,01.16,0.508
2016-05-27 02:54:00,1979E-3,5C000400,-0724,0832,12229,026.0,045.4,0.258,759.9,01.16,0.508
2016-05-27 02:55:00,2090E-3,5C000400,-0724,0832,12315,026.0,045.4,0.259,759.9,01.16,0.508
2016-05-27 02:56:00,2020E-3,5C000400,-0724,0832,12086,026.0,045.4,0.258,759.9,01.16,0.508
2016-05-27 02:57:00,1938E-3,5C000400,-0724,0832,12279,026.0,045.4,0.259,759.9,01.16,0.508
2016-05-27 02:58:00,1946E-3,5C000400,-0724,0832,12304,026.0,045.4,0.258,759.9,01.16,0.508
2016-05-27 02:59:00,1991E-3,5C000400,-0724,0832,12131,026.0,045.4,0.258,759.9,01.16,0.508
2016-05-27 03:00:00,1852E-3,5C000400,-0724,0832,12305,026.0,045.4,0.258,759.9,01.16,0.508
2016-05-27 03:01:00,1921E-3,5C000400,-0724,0833,12298,026.0,045.4,0.258,759.9,01.16,0.508
2016-05-27 03:02:00,1956E-3,5C000400,-0724,0832,12101,026.0,045.4,0.258,759.9,01.16,0.508
2016-05-27 03:03:00,2101E-3,5C000400,-0724,0832,12208,026.1,045.4,0.258,759.9,01.16,0.508
2016-05-27 03:04:00,2183E-3,5C000400,-0724,0832,12244,026.1,045.4,0.259,759.9,01.16,0.508
2016-05-27 03:05:00,2029E-3,5C000400,-0724,0832,12205,026.1,045.4,0.258,759.9,01.16,0.508
2016-05-27 03:06:00,1923E-3,5C000400,-0724,0832,12195,026.1,045.4,0.259,759.9,01.16,0.508
2016-05-27 03:07:00,2051E-3,5C000400,-0724,0833,12062,026.1,045.4,0.258,759.9,01.16,0.508
2016-05-27 03:08:00,1995E-3,5C000400,-0724,0832,12243,026.1,045.4,0.258,759.9,01.16,0.508
2016-05-27 03:09:00,1993E-3,5C000400,-0724,0832,12204,026.1,045.4,0.258,759.9,01.16,0.508
2016-05-27 03:10:00,1952E-3,5C000400,-0724,0831,12169,026.1,045.4,0.258,759.9,01.16,0.508
2016-05-27 03:11:00,1986E-3,5C000400,-0724,0832,12237,026.1,045.4,0.259,759.9,01.16,0.508
2016-05-27 03:12:00,1976E-3,5C000400,-0724,0833,12229,026.1,045.4,0.258,759.9,01.16,0.508
2016-05-27 03:13:00,2076E-3,5C000400,-0724,0832,12157,026.1,045.4,0.258,759.9,01.16,0.508
2016-05-27 03:14:00,2104E-3,5C000400,-0724,0832,12118,026.1,045.4,0.258,759.9,01.16,0.508
2016-05-27 03:15:00,2044E-3,5C000400,-0724,0832,12258,026.1,045.4,0.258,759.8,01.16,0.508
2016-05-27 03:16:00,1965E-3,5C000400,-0724,0832,12210,026.1,045.4,0.258,759.8,01.16,0.508
2016-05-27 03:17:00,2020E-3,5C000400,-0724,0832,12209,026.1,045.4,0.258,759.8,01.16,0.508
2016-05-27 03:18:00,1895E-3,5C000400,-0724,0832,12270,026.2,045.4,0.258,759.8,01.16,0.508
2016-05-27 03:19:00,2048E-3,5C000400,-0724,0833,12168,026.2,045.4,0.258,759.8,01.16,0.508
2016-05-27 03:20:00,1939E-3,5C000400,-0724,0833,12139,026.2,045.4,0.258,759.8,01.16,0.508
2016-05-27 03:21:00,2060E-3,5C000400,-0724,0832,12293,026.2,045.4,0.258,759.8,01.16,0.508
2016-05-27 03:22:00,2160E-3,5C000400,-0724,0832,12132,026.2,045.4,0.258,759.8,01.16,0.508
2016-05-27 03:23:00,1971E-3,5C000400,-0724,0832,12166,026.2,045.4,0.258,759.8,01.16,0.508
2016-05-27 03:24:00,2025E-3,5C000400,-0724,0832,12280,026.2,045.4,0.258,759.8,01.16,0.508
2016-05-27 03:25:00,1956E-3,5C000400,-0724,0833,12352,026.2,045.4,0.258,759.8,01.16,0.508
2016-05-27 03:26:00,2050E-3,5C000400,-0724,0831,12156,026.2,045.4,0.258,759.8,01.16,0.508
2016-05-27 03:27:00,1920E-3,5C000400,-0724,0832,12255,026.2,045.4,0.258,759.8,01.16,0.508
2016-05-27 03:28:00,2119E-3,5C000400,-0724,0833,12141,026.2,045.4,0.258,759.8,01.16,0.508
2016-05-27 03:29:00,1962E-3,5C000400,-0724,0832,12227,026.2,045.4,0.258,759.8,01.16,0.508
2016-05-27 03:30:00,2022E-3,5C000400,-0724,0832,12045,026.2,045.4,0.258,759.8,01.16,0.508
2016-05-27 03:31:00,2021E-3,5C000400,-0724,0833,12204,026.2,045.4,0.258,759.7,01.16,0.508
2016-05-27 03:32:00,2017E-3,5C000400,-0724,0832,12086,026.3,045.4,0.258,759.8,01.16,0.508
2016-05-27 03:33:00,1994E-3,5C000400,-0724,0833,12264,026.3,045.4,0.258,759.7,01.16,0.508
2016-05-27 03:34:00,1963E-3,5C000400,-0724,0832,12170,026.3,045.3,0.259,759.7,01.16,0.508
2016-05-27 03:35:00,2080E-3,5C000400,-0724,0832,12150,026.2,045.4,0.258,759.7,01.16,0.508
2016-05-27 03:36:00,2020E-3,5C000400,-0724,0832,12168,026.3,045.4,0.259,759.7,01.16,0.508
2016-05-27 03:37:00,2092E-3,5C000400,-0724,0833,12080,026.3,045.4,0.258,759.7,01.16,0.508
2016-05-27 03:38:00,1954E-3,5C000400,-0724,0832,12097,026.3,045.4,0.258,759.8,01.16,0.508
2016-05-27 03:39:00,1900E-3,5C000400,-0724,0833,12000,026.3,045.4,0.258,759.8,01.16,0.508
2016-05-27 03:40:00,2017E-3,5C000400,-0724,0833,12086,026.3,045.4,0.258,759.8,01.16,0.508
2016-05-27 03:41:00,1957E-3,5C000400,-0724,0833,12065,026.3,045.4,0.258,759.8,01.16,0.508
2016-05-27 03:42:00,1973E-3,5C000400,-0724,0832,12082,026.3,045.4,0.258,759.7,01.16,0.508
2016-05-27 03:43:00,2106E-3,5C000400,-0724,0833,12026,026.3,045.4,0.258,759.8,01.16,0.508
2016-05-27 03:44:00,2033E-3,5C000400,-0724,0832,12163,026.3,045.3,0.258,759.8,01.16,0.508
2016-05-27 03:45:00,1904E-3,5C000400,-0724,0832,12087,026.3,045.4,0.258,759.8,01.16,0.508
2016-05-27 03:46:00,1895E-3,5C000400,-0724,0832,12176,026.3,045.4,0.258,759.8,01.16,0.508
2016-05-27 03:47:00,2088E-3,5C000400,-0724,0832,12222,026.3,045.4,0.258,759.7,01.16,0.508
2016-05-27 03:48:00,2035E-3,5C000400,-0724,0832,12057,026.3,045.4,0.258,759.7,01.16,0.508
2016-05-27 03:49:00,2207E-3,5C000400,-0724,0832,12342,026.3,045.4,0.258,759.7,01.16,0.508
2016-05-27 03:50:00,1961E-3,5C000400,-0724,0832,12168,026.3,045.4,0.258,759.7,01.16,0.508
2016-05-27 03:51:00,1879E-3,5C000400,-0724,0832,12021,026.4,045.4,0.258,759.7,01.16,0.508
2016-05-27 03:52:00,2015E-3,5C000400,-0724,0833,12161,026.3,045.4,0.258,759.7,01.16,0.508
2016-05-27 03:53:00,2060E-3,5C000400,-0724,0832,12154,026.4,045.4,0.258,759.7,01.16,0.508
2016-05-27 03:54:00,2029E-3,5C000400,-0724,0832,12001,026.4,045.4,0.257,759.7,01.16,0.508
2016-05-27 03:55:00,1906E-3,5C000400,-0724,0832,12221,026.4,045.4,0.258,759.7,01.16,0.508
2016-05-27 03:56:00,1894E-3,5C000400,-0724,0832,12027,026.4,045.4,0.258,759.8,01.16,0.508
2016-05-27 03:57:00,2049E-3,5C000400,-0724,0832,12102,026.4,045.4,0.258,759.7,01.16,0.508
2016-05-27 03:58:00,2061E-3,5C000400,-0724,0833,12149,026.4,045.4,0.258,759.8,01.16,0.508
2016-05-27 03:59:00,1977E-3,5C000400,-0724,0833,12098,026.4,045.4,0.257,759.8,01.16,0.508
2016-05-27 04:00:00,1993E-3,5C000400,-0724,0833,12117,026.4,045.4,0.258,759.8,01.16,0.508
2016-05-27 04:01:00,1978E-3,5C000400,-0724,0832,12167,026.4,045.4,0.257,759.8,01.16,0.508
2016-05-27 04:02:00,1995E-3,5C000400,-0724,0832,12087,026.4,045.4,0.258,759.8,01.16,0.508
2016-05-27 04:03:00,1954E-3,5C000400,-0724,0834,12128,026.4,045.4,0.258,759.7,01.16,0.508
2016-05-27 04:04:00,1990E-3,5C000400,-0724,0832,12275,026.4,045.4,0.258,759.7,01.16,0.508
2016-05-27 04:05:00,1999E-3,5C000400,-0724,0832,12125,026.4,045.4,0.258,759.7,01.16,0.508
2016-05-27 04:06:00,1876E-3,5C000400,-0724,0832,12201,026.4,045.4,0.257,759.7,01.16,0.508
2016-05-27 04:07:00,1998E-3,5C000400,-0724,0832,12168,026.4,045.4,0.258,759.7,01.16,0.508
2016-05-27 04:08:00,2003E-3,5C000400,-0724,0832,12104,026.4,045.4,0.258,759.7,01.16,0.508
2016-05-27 04:09:00,2048E-3,5C000400,-0724,0832,12233,026.4,045.4,0.257,759.7,01.16,0.508
2016-05-27 04:10:00,2055E-3,5C000400,-0724,0832,12116,026.5,045.4,0.258,759.7,01.16,0.508
2016-05-27 04:11:00,2023E-3,5C000400,-0724,0832,12275,026.5,045.4,0.258,759.7,01.16,0.508
2016-05-27 04:12:00,2050E-3,5C000400,-0724,0832,12253,026.5,045.4,0.257,759.7,01.16,0.508
2016-05-27 04:13:00,2029E-3,5C000400,-0724,0832,12145,026.5,045.4,0.258,759.7,01.16,0.508
2016-05-27 04:14:00,2134E-3,5C000400,-0724,0833,12051,026.5,045.4,0.257,759.7,01.16,0.508
2016-05-27 04:15:00,1985E-3,5C000400,-0724,0832,12243,026.5,045.4,0.258,759.7,01.16,0.508
2016-05-27 04:16:00,2200E-3,5C000400,-0724,0833,12059,026.5,045.4,0.258,759.7,01.16,0.508
2016-05-27 04:17:00,1985E-3,5C000400,-0724,0832,12223,026.5,045.4,0.257,759.7,01.16,0.508
2016-05-27 04:18:00,2018E-3,5C000400,-0724,0832,12231,026.5,045.4,0.258,759.7,01.16,0.508
2016-05-27 04:19:00,1899E-3,5C000400,-0724,0833,12183,026.5,045.4,0.257,759.7,01.16,0.508
2016-05-27 04:20:00,2063E-3,5C000400,-0724,0832,12319,026.5,045.4,0.258,759.7,01.16,0.508